This is the latest recevied weather packets stored in our database for station/object W8CEN. If no packets are shown the sender has not sent any weather packets the latest 10 day(s).
| Time | Temp. | Humidity | Pressure | Rain* | Wind** | Luminosity | Snow |
|---|---|---|---|---|---|---|---|
| 1777531505 | 7.22° C | 82% | 990.9 hPa | 0 mm | - | 0 W/m² | - |
| 1777531203 | 7.22° C | 81% | 990.8 hPa | 0 mm | - | 0 W/m² | - |
| 1777530900 | 7.22° C | 82% | 990.7 hPa | 0 mm | - | 0 W/m² | - |
| 1777530597 | 6.67° C | 82% | 990.8 hPa | 0 mm | - | 0 W/m² | - |
| 1777530295 | 6.67° C | 86% | 990.9 hPa | 0 mm | - | 0 W/m² | - |
| 1777529990 | 6.67° C | 89% | 990.9 hPa | 0 mm | - | 0 W/m² | - |
| 1777529688 | 6.11° C | 91% | 991 hPa | 0 mm | - | 0 W/m² | - |
| 1777529384 | 6.11° C | 91% | 990.9 hPa | 0 mm | - | 0 W/m² | - |
| 1777529081 | 6.11° C | 90% | 991 hPa | 0 mm | - | 0 W/m² | - |
| 1777528776 | 6.67° C | 89% | 991 hPa | 0 mm | - | 0 W/m² | - |
| 1777528474 | 6.67° C | 88% | 991 hPa | 0 mm | - | 0 W/m² | - |
| 1777528173 | 6.67° C | 87% | 991 hPa | 0 mm | - | 0 W/m² | - |
| 1777527869 | 6.67° C | 86% | 991.2 hPa | 0 mm | - | 0 W/m² | - |
| 1777527565 | 6.67° C | 85% | 990.9 hPa | 0 mm | - | 0 W/m² | - |
| 1777527260 | 6.67° C | 85% | 990.9 hPa | 0 mm | - | 0 W/m² | - |
| 1777526955 | 6.67° C | 85% | 991.1 hPa | 0 mm | - | 0 W/m² | - |
| 1777526652 | 6.67° C | 85% | 991.2 hPa | 0 mm | - | 0 W/m² | - |
| 1777526352 | 6.67° C | 84% | 991.1 hPa | 0 mm | - | 0 W/m² | - |
| 1777526048 | 6.67° C | 86% | 991.3 hPa | 0 mm | - | 0 W/m² | - |
| 1777525744 | 6.67° C | 89% | 991.1 hPa | 0 mm | - | 0 W/m² | - |
| 1777525441 | 6.67° C | 89% | 991.3 hPa | 0 mm | - | 0 W/m² | - |
| 1777525137 | 6.67° C | 90% | 991.4 hPa | 1.78 mm | - | 0 W/m² | - |
| 1777524835 | 6.67° C | 90% | 991.3 hPa | 1.78 mm | - | 0 W/m² | - |
| 1777524533 | 6.67° C | 88% | 991.1 hPa | 0 mm | - | 0 W/m² | - |
| 1777524229 | 6.67° C | 87% | 991.2 hPa | 1.27 mm | - | 0 W/m² | - |
* Rain latest hour (hover to see other rain measurements)
** Current wind speed in m/s (hover to see current wind gust speed)